Eagle, CO

10:33 PM MDT on March 25, 2017 (GMT -0600)
Eagle County Regional

Weather History for KEGE - January, 2014

Change the Weather History Date:

Tuesday, January 7, 2014

  Actual Average Record
Temperature  
Mean Temperature 10 °F -  
Max Temperature 24 °F 29 °F 58 °F (1954)
Min Temperature -4 °F 0 °F -36 °F (1971)
Degree Days  
Heating Degree Days 55    
Moisture  
Dew Point 4 °F    
Average Humidity 85    
Maximum Humidity 93    
Minimum Humidity 63    
Precipitation  
Precipitation 0.00 in - - ()
Sea Level Pressure  
Sea Level Pressure 30.26 in    
Wind  
Wind Speed 1 mph (ESE)    
Max Wind Speed 7 mph    
Max Gust Speed -    
Visibility 10 miles    
Events Snow    
Averages and records for this station are not official NWS values.
T = Trace of Precipitation, MM = Missing Value Source: NWS Daily Summary

Daily Weather History Graph

Daily Weather History Graph

Search for Another Location

Airport or City:

Trip Planner

Search our weather history database for the weather conditions in past years. The results will help you decide how hot, cold, wet, or windy it might be!

Date:

Astronomy

Jan. 07, 2014 Rise Set
Actual Time 7:28 AM MST 4:59 PM MST
Civil Twilight 6:58 AM MST 5:29 PM MST
Nautical Twilight 6:25 AM MST 6:03 PM MST
Astronomical Twilight 5:52 AM MST 6:35 PM MST
Moon 11:20 AM MST (1/7) No Moon Set
Length of Visible Light 10h 31m
Length of Day
9h 31m
Waxing Crescent, 46% of the Moon is Illuminated
Jan 7
Waxing Crescent
Jan 7
First Quarter
Jan 15
Full
Jan 23
Last Quarter
Jan 30
New

Hourly Weather History & Observations

Time (MST) Temp. Windchill Dew Point Humidity Pressure Visibility Wind Dir Wind Speed Gust Speed Precip Events Conditions
12:15 AM 1.4 °F - -0.4 °F 92% 30.38 in 10.0 mi Calm Calm - N/A   Clear
12:35 AM 1.4 °F - -2.2 °F 85% 30.37 in 10.0 mi Calm Calm - N/A   Clear
12:55 AM -0.4 °F - -2.2 °F 92% 30.37 in 10.0 mi Calm Calm - N/A   Clear
1:15 AM -0.4 °F - -2.2 °F 92% 30.37 in 10.0 mi Calm Calm - N/A   Clear
1:35 AM -0.4 °F -8.3 °F -4.0 °F 85% 30.37 in 10.0 mi East 3.5 mph - N/A   Clear
1:55 AM -0.4 °F -8.3 °F -2.2 °F 92% 30.37 in 10.0 mi ESE 3.5 mph - N/A   Clear
2:15 AM -0.4 °F -8.3 °F -2.2 °F 92% 30.37 in 10.0 mi ESE 3.5 mph - N/A   Clear
2:35 AM -0.4 °F - -4.0 °F 85% 30.37 in 10.0 mi Calm Calm - N/A   Clear
2:55 AM -2.2 °F -12.5 °F -4.0 °F 92% 30.37 in 10.0 mi East 4.6 mph - N/A   Clear
3:15 AM -2.2 °F - -4.0 °F 92% 30.36 in 10.0 mi Calm Calm - N/A   Clear
3:35 AM -2.2 °F -10.4 °F -4.0 °F 92% 30.35 in 10.0 mi ESE 3.5 mph - N/A   Clear
3:55 AM -0.4 °F - -4.0 °F 85% 30.34 in 10.0 mi Calm Calm - N/A   Clear
4:15 AM -0.4 °F - -4.0 °F 85% 30.34 in 10.0 mi Calm Calm - N/A   Clear
4:35 AM -0.4 °F - -2.2 °F 92% 30.33 in 10.0 mi Calm Calm - N/A   Clear
4:55 AM -2.2 °F -10.4 °F -5.8 °F 85% 30.33 in 10.0 mi East 3.5 mph - N/A   Clear
5:15 AM -4.0 °F -12.4 °F -5.8 °F 92% 30.32 in 10.0 mi East 3.5 mph - N/A   Clear
5:35 AM -2.2 °F -12.5 °F -5.8 °F 85% 30.32 in 10.0 mi SE 4.6 mph - N/A   Clear
5:55 AM -0.4 °F - -4.0 °F 85% 30.32 in 10.0 mi Calm Calm - N/A   Clear
6:15 AM -2.2 °F - -5.8 °F 85% 30.32 in 10.0 mi Calm Calm - N/A   Clear
6:35 AM -2.2 °F - -5.8 °F 85% 30.32 in 10.0 mi Calm Calm - N/A   Clear
6:50 AM -2.2 °F - -5.8 °F 85% 30.32 in 10.0 mi Calm Calm - N/A   Scattered Clouds
7:55 AM -0.4 °F - -2.2 °F 92% 30.31 in 10.0 mi Calm Calm - N/A   Mostly Cloudy
8:50 AM 1.4 °F - -0.4 °F 92% 30.31 in 10.0 mi Calm Calm - N/A   Mostly Cloudy
9:50 AM 1.4 °F - -0.4 °F 92% 30.28 in 10.0 mi Calm Calm - N/A   Mostly Cloudy
10:50 AM 6.8 °F - 1.4 °F 79% 30.25 in 10.0 mi Calm Calm - N/A   Mostly Cloudy
11:50 AM 10.4 °F - 5.0 °F 79% 30.18 in 10.0 mi Calm Calm - N/A   Mostly Cloudy
12:50 PM 17.6 °F - 8.6 °F 68% 30.13 in 10.0 mi Calm Calm - N/A   Mostly Cloudy
1:50 PM 19.4 °F - 8.6 °F 63% 30.11 in 10.0 mi Calm Calm - N/A   Mostly Cloudy
2:50 PM 21.2 °F 12.6 °F 12.2 °F 68% 30.12 in 10.0 mi Variable 6.9 mph - N/A   Overcast
3:50 PM 21.2 °F - 12.2 °F 68% 30.12 in 10.0 mi Calm Calm - N/A   Overcast
5:50 PM 24.8 °F - 15.8 °F 69% 30.11 in 10.0 mi Calm Calm - N/A   Overcast
6:50 PM 24.8 °F 17.9 °F 17.6 °F 74% 30.10 in 10.0 mi Variable 5.8 mph - N/A   Overcast
7:50 PM 24.8 °F - 21.2 °F 86% 30.10 in 8.0 mi Calm Calm - N/A Snow Light Snow
8:50 PM 24.8 °F - 19.4 °F 80% 30.10 in 10.0 mi Calm Calm - N/A   Mostly Cloudy
9:50 PM 21.2 °F 13.6 °F 19.4 °F 93% 30.10 in 10.0 mi Variable 5.8 mph - N/A   Mostly Cloudy
10:50 PM 23.0 °F 17.0 °F 21.2 °F 93% 30.10 in 10.0 mi Variable 4.6 mph - N/A   Mostly Cloudy
11:15 PM 23.0 °F 17.0 °F 21.2 °F 93% 30.09 in 10.0 mi East 4.6 mph - N/A   Overcast
11:35 PM 23.0 °F 17.0 °F 21.2 °F 93% 30.09 in 10.0 mi East 4.6 mph - N/A   Overcast
11:55 PM 23.0 °F 15.8 °F 21.2 °F 93% 30.09 in 10.0 mi East 5.8 mph - N/A   Overcast